This demonstration page uses our WeatherBlox Daily Observations layout. Learn more.

Left ArrowRight Arrow

Hourly Observations for February 3, 2019

Temp ( °F °C ) Dew Point ( °F °C ) Humidity (%) Winds ( mph kmh ) Pressure ( in mb ) Visibility ( mi km ) Precip ( " mm )
12:15 am 00:15 Cloudy 54 12.2 50 10 87 87 Calm 30.15 1021 10 16 0.00 0.00
12:39 am 00:39 Cloudy 56 13.3 49 9.4 77 77 Calm 30.13 1020 10 16 0.00 0.00
12:53 am 00:53 Cloudy 55 12.8 49 9.4 80 80 NE 3 6 30.11 1020 10 16 0.00 0.00
1:53 am 01:53 Cloudy 54 12.2 50 10 87 87 Calm 30.11 1020 10 16 0.00 0.00
2:53 am 02:53 Cloudy 53 11.7 49 9.4 86 86 Calm 30.10 1019 10 16 0.00 0.00
3:02 am 03:02 Cloudy 52 11.1 49 9.4 89 89 Calm 30.12 1020 10 16 0.00 0.00
3:53 am 03:53 Cloudy 53 11.7 49 9.4 86 86 Calm 30.09 1019 10 16 0.00 0.00
4:21 am 04:21 Cloudy 54 12.2 49 9.4 83 83 Calm 30.09 1019 10 16 0.00 0.00
4:40 am 04:40 Cloudy 54 12.2 49 9.4 83 83 Calm 30.09 1019 10 16 0.00 0.00
4:53 am 04:53 Cloudy 52 11.1 49 9.4 89 89 Calm 30.08 1019 10 16 0.00 0.00
5:04 am 05:04 Cloudy 53 11.7 49 9.4 86 86 Calm 30.09 1019 10 16 0.00 0.00
5:50 am 05:50 Cloudy 54 12 48 9 82 82 Calm 30.09 1019 10 16 0.00 0.00
5:53 am 05:53 Cloudy 54 12.2 48 8.9 80 80 Calm 30.08 1019 10 16 0.00 0.00
6:04 am 06:04 Cloudy with Light Rain 52 11.1 49 9.4 89 89 Calm 30.11 1020 10 16 0.00 0.03
6:53 am 06:53 Cloudy with Light Rain 53 11.7 50 10 89 89 Calm 30.10 1019 10 16 0.00 0.03
7:04 am 07:04 Cloudy with Light Rain 51 10.6 50 10 96 96 Calm 30.12 1020 10 16 0.00 0.03
7:53 am 07:53 Cloudy 52 11.1 51 10.6 97 97 Calm 30.11 1020 10 16 0.00 0.03
8:53 am 08:53 Cloudy 52 11.1 52 11.1 100 100 Calm 30.12 1020 10 16 0.03 0.76
9:53 am 09:53 Cloudy 54 12.2 52 11.1 93 93 NNE 5 7 30.13 1020 10 16 0.00 0.00
10:53 am 10:53 Cloudy 56 13.3 49 9.4 77 77 ENE 6 9 30.14 1021 10 16 0.00 0.00
11:53 am 11:53 Cloudy 58 14.4 48 8.9 70 70 E 5 7 30.13 1020 10 16 0.00 0.00
12:53 pm 12:53 Cloudy 60 15.6 48 8.9 65 65 ENE 7 11 30.10 1019 10 16 0.00 0.00
1:53 pm 13:53 Cloudy 61 16.1 46 7.8 58 58 E 7 11 30.08 1019 10 16 0.00 0.00
2:53 pm 14:53 Mostly Cloudy 63 17.2 48 8.9 58 58 ENE 3 6 30.05 1018 10 16 0.00 0.00
3:53 pm 15:53 Cloudy 63 17.2 47 8.3 56 56 ENE 5 7 30.04 1017 10 16 0.00 0.00
4:53 pm 16:53 Mostly Sunny 63 17.2 44 6.7 50 50 E 3 6 30.04 1017 10 16 0.00 0.00
5:53 pm 17:53 Partly Cloudy 62 16.7 45 7.2 54 54 Calm 30.03 1017 10 16 0.00 0.00
6:53 pm 18:53 Clear 54 12.2 45 7.2 72 72 Calm 30.05 1018 10 16 0.00 0.00
7:53 pm 19:53 Clear 50 10 45 7.2 83 83 Calm 30.06 1018 10 16 0.00 0.00
8:53 pm 20:53 Clear 48 8.9 45 7.2 89 89 Calm 30.06 1018 10 16 0.00 0.00
9:53 pm 21:53 Clear 45 7.2 44 6.7 97 97 Calm 30.06 1018 10 16 0.00 0.00
10:53 pm 22:53 Clear 44 6.7 44 6.7 100 100 Calm 30.07 1018 10 16 0.00 0.00
11:53 pm 23:53 Clear 45 7.2 43 6.1 93 93 Calm 30.07 1018 10 16 0.00 0.00

Powered by AerisWeather